Darstellungsparameter: Aktuell verwendete Einstellungen:
Skalierung der Graphiken ... ?
xyx+y,   Skalierungsfaktor:      Skalierung: Modus: x, Faktor: 1
Darstellungszeitraum ... ?
Vom - - bis: - -   Zeitraum: 16.05.2010 - 18.05.2010
Min/Max/Avg-Anzeige ... ?
Zeige MMA aktuell
Zeige MMA Monat
Zeige MMA alles
Zeige --A aktuell
Zeige --A Monat
Zeige --A alles
Keine MMA-Anzeige
MMA:
Average (ber die Originaldaten)
MMA-Basis: 16.05.2010 - 18.05.2010
Quicknavigation für Darstellung... ?
Tage:      1T, 2T, 3T, 5T -1T -2T -3T -5T +1T +2T +3T +5T
Wochen: 1W, 2W, 3W -1W -2W -3W +1W +2W +3W
Monate: 1M, 3M, 6M -1M -3M -6M +1M +3M +6M
Jahre:    1J, 3J, 5J, 10J -1J -3J -5J -10J +1J +3J +5J +10J
Nutze für die Darstellung ... ?
Originaldaten oder Mittelwerte auf ...
Stundenbasis Tagesbasis Wochenbasis
Monatsbasis Jahresbasis      Datenbasis: Original-Daten
Darstellen als:
Statistik (Auto) Statistik J:M      Darstellung:
Zur Graphik,    zurück zur Übersicht aller Sensoren.
 
Tabellarische Datenbersicht: ?
 
Sensor: Nr:Datum:Temp:Abs-Feuchte:Windchill:Wind:
Aussen-T/F 1 16-05-2010 00:08:03 10.2 C 5.04 g/m*3 10.2 C 0 km/h
2 16-05-2010 00:20:03 10.1 C 5.3 g/m*3 10.1 C 0 km/h
3 16-05-2010 00:32:03 10.1 C 5.39 g/m*3 10.1 C 0 km/h
4 16-05-2010 00:44:03 10 C 5.45 g/m*3 10 C 0 km/h
5 16-05-2010 00:56:03 10.1 C 5.48 g/m*3 10.1 C 0 km/h
6 16-05-2010 01:08:03 10 C 5.54 g/m*3 10 C 0 km/h
7 16-05-2010 01:20:03 9.7 C 5.62 g/m*3 9.7 C 0 km/h
8 16-05-2010 01:32:03 9.3 C 5.66 g/m*3 9.3 C 0 km/h
9 16-05-2010 01:44:03 9 C 5.64 g/m*3 9 C 0 km/h
10 16-05-2010 01:56:03 8.7 C 5.88 g/m*3 8.7 C 0 km/h
11 16-05-2010 02:08:03 8.4 C 5.85 g/m*3 8.4 C 0 km/h
12 16-05-2010 02:20:03 8.2 C 5.86 g/m*3 8.2 C 0 km/h
13 16-05-2010 02:32:03 8 C 5.87 g/m*3 8 C 0 km/h
14 16-05-2010 02:44:04 7.8 C 5.96 g/m*3 7.8 C 0 km/h
15 16-05-2010 02:56:04 7.8 C 5.88 g/m*3 7.8 C 0 km/h
16 16-05-2010 03:08:04 7.6 C 5.88 g/m*3 7.6 C 0 km/h
17 16-05-2010 03:20:04 7.4 C 5.88 g/m*3 7.4 C 0 km/h
18 16-05-2010 03:32:04 7.4 C 5.88 g/m*3 7.4 C 0 km/h
19 16-05-2010 03:44:04 7.5 C 5.92 g/m*3 7.5 C 0 km/h
20 16-05-2010 03:56:04 7.5 C 5.92 g/m*3 7.5 C 0 km/h
21 16-05-2010 04:08:04 7.6 C 5.96 g/m*3 7.6 C 0 km/h
22 16-05-2010 04:20:04 7.6 C 5.88 g/m*3 7.6 C 0 km/h
23 16-05-2010 04:32:04 7.6 C 5.96 g/m*3 7.6 C 0 km/h
24 16-05-2010 04:44:04 7.6 C 5.96 g/m*3 7.6 C 0 km/h
25 16-05-2010 04:56:04 7.6 C 5.96 g/m*3 7.6 C 0 km/h
Sensor: Nr:Datum:Temp:Abs-Feuchte:Windchill:Wind:
Aussen-T/F 26 16-05-2010 05:08:04 7.6 C 5.96 g/m*3 7.6 C 0 km/h
27 16-05-2010 05:20:04 7.5 C 5.92 g/m*3 7.5 C 0 km/h
28 16-05-2010 05:32:04 7.2 C 5.89 g/m*3 7.2 C 0 km/h
29 16-05-2010 05:44:04 7 C 5.89 g/m*3 7 C 0 km/h
30 16-05-2010 05:56:04 7.2 C 5.97 g/m*3 7.2 C 0 km/h
31 16-05-2010 06:08:04 7.4 C 6.04 g/m*3 7.4 C 0 km/h
32 16-05-2010 06:20:04 7.4 C 5.96 g/m*3 7.4 C 0 km/h
33 16-05-2010 06:32:04 7.4 C 5.96 g/m*3 7.4 C 0 km/h
34 16-05-2010 06:44:04 7.4 C 5.96 g/m*3 7.4 C 0 km/h
35 16-05-2010 06:56:05 7.5 C 6 g/m*3 7.5 C 0 km/h
36 16-05-2010 07:08:05 7.7 C 6.08 g/m*3 7.7 C 0 km/h
37 16-05-2010 07:20:05 7.8 C 6.04 g/m*3 7.8 C 0 km/h
38 16-05-2010 07:32:05 7.9 C 6.08 g/m*3 7.9 C 0 km/h
39 16-05-2010 07:44:05 7.9 C 6.08 g/m*3 7.9 C 0 km/h
40 16-05-2010 07:56:05 7.9 C 6.08 g/m*3 7.9 C 0 km/h
41 16-05-2010 08:08:05 8 C 6.04 g/m*3 8 C 0 km/h
42 16-05-2010 08:20:05 8.2 C 6.2 g/m*3 8.2 C 0 km/h
43 16-05-2010 08:32:05 8.7 C 6.14 g/m*3 8.7 C 0 km/h
44 16-05-2010 08:44:05 9.1 C 6.03 g/m*3 9.1 C 0 km/h
45 16-05-2010 08:56:05 9.6 C 6.05 g/m*3 9.6 C 0 km/h
46 16-05-2010 09:08:02 10.2 C 5.8 g/m*3 10.2 C 0 km/h
47 16-05-2010 09:20:01 10.6 C 4.98 g/m*3 10.6 C 0 km/h
48 16-05-2010 09:32:02 11 C 4.7 g/m*3 11 C 0 km/h
49 16-05-2010 09:44:02 11.3 C 4.39 g/m*3 11.3 C 0 km/h
50 16-05-2010 09:56:02 11.7 C 4.39 g/m*3 11.7 C 0 km/h
Sensor: Nr:Datum:Temp:Abs-Feuchte:Windchill:Wind:
Aussen-T/F 51 16-05-2010 10:08:02 11.9 C 4.24 g/m*3 11.9 C 0 km/h
52 16-05-2010 10:20:01 12.2 C 4.1 g/m*3 12.2 C 0 km/h
53 16-05-2010 10:32:02 12.4 C 4.15 g/m*3 12.4 C 0 km/h
54 16-05-2010 10:44:02 13 C 4.31 g/m*3 13 C 0 km/h
55 16-05-2010 10:56:01 13.3 C 4.16 g/m*3 13.3 C 0 km/h
56 16-05-2010 11:08:02 13.7 C 4.03 g/m*3 13.7 C 0 km/h
57 16-05-2010 11:20:02 14.3 C 4.05 g/m*3 14.3 C 0 km/h
58 16-05-2010 11:32:02 15.4 C 4.07 g/m*3 15.4 C 0 km/h
59 16-05-2010 11:44:02 15.4 C 3.94 g/m*3 15.4 C 0 km/h
60 16-05-2010 11:56:01 15.4 C 3.81 g/m*3 15.4 C 0 km/h
61 16-05-2010 12:08:02 15.9 C 3.52 g/m*3 15.9 C 0 km/h
62 16-05-2010 12:20:02 16.1 C 3.84 g/m*3 16.1 C 0 km/h
63 16-05-2010 12:32:02 17.9 C 3.82 g/m*3 17.9 C 0 km/h
64 16-05-2010 12:44:02 17.2 C 3.37 g/m*3 17.2 C 0 km/h
65 16-05-2010 12:56:01 16.1 C 3.43 g/m*3 16.1 C 0 km/h
66 16-05-2010 13:08:02 18.3 C 3.6 g/m*3 18.3 C 0 km/h
67 16-05-2010 13:20:02 17.3 C 3.39 g/m*3 17.3 C 0 km/h
68 16-05-2010 13:32:01 17.4 C 3.41 g/m*3 17.4 C 0 km/h
69 16-05-2010 13:44:01 18 C 3.69 g/m*3 18 C 0 km/h
70 16-05-2010 13:56:02 17.3 C 3.54 g/m*3 17.3 C 0 km/h
71 16-05-2010 14:08:01 16.7 C 3.55 g/m*3 16.7 C 0 km/h
72 16-05-2010 14:20:02 18.4 C 3.93 g/m*3 18.4 C 0 km/h
73 16-05-2010 14:32:02 18.4 C 3.3 g/m*3 18.4 C 0 km/h
74 16-05-2010 14:44:02 17.9 C 3.51 g/m*3 17.9 C 0 km/h
75 16-05-2010 14:56:02 18.2 C 3.42 g/m*3 18.2 C 0 km/h
Sensor: Nr:Datum:Temp:Abs-Feuchte:Windchill:Wind:
Aussen-T/F 76 16-05-2010 15:08:02 19 C 3.26 g/m*3 19 C 0 km/h
77 16-05-2010 15:20:02 19.3 C 3.32 g/m*3 19.3 C 0 km/h
78 16-05-2010 15:32:02 19.8 C 3.42 g/m*3 19.8 C 0 km/h
79 16-05-2010 15:44:02 19.1 C 3.28 g/m*3 19.1 C 0 km/h
80 16-05-2010 15:56:02 20.3 C 3.52 g/m*3 20.3 C 0 km/h
81 16-05-2010 16:08:02 21 C 3.66 g/m*3 21 C 0 km/h
82 16-05-2010 16:20:01 20.1 C 3.48 g/m*3 20.1 C 0 km/h
83 16-05-2010 16:32:02 20.4 C 3.54 g/m*3 20.4 C 0 km/h
84 16-05-2010 16:44:02 20 C 3.46 g/m*3 20 C 0 km/h
85 16-05-2010 16:56:02 21.2 C 3.71 g/m*3 21.2 C 0 km/h
86 16-05-2010 17:08:02 21.7 C 3.82 g/m*3 21.7 C 0 km/h
87 16-05-2010 17:20:02 21.1 C 3.69 g/m*3 21.1 C 0 km/h
88 16-05-2010 17:32:02 21.5 C 3.77 g/m*3 21.5 C 0 km/h
89 16-05-2010 17:44:02 21.4 C 3.75 g/m*3 21.4 C 0 km/h
90 16-05-2010 17:56:02 20.8 C 3.62 g/m*3 20.8 C 0 km/h
91 16-05-2010 18:08:02 20.8 C 3.62 g/m*3 20.8 C 0 km/h
92 16-05-2010 18:20:02 20 C 3.46 g/m*3 20 C 0 km/h
93 16-05-2010 18:32:02 19.5 C 3.52 g/m*3 19.5 C 0 km/h
94 16-05-2010 18:44:02 18.9 C 3.56 g/m*3 18.9 C 0 km/h
95 16-05-2010 18:56:02 19.9 C 3.44 g/m*3 19.9 C 0 km/h
96 16-05-2010 19:08:02 19.7 C 3.57 g/m*3 19.7 C 0 km/h
97 16-05-2010 19:20:03 19.5 C 3.52 g/m*3 19.5 C 0 km/h
98 16-05-2010 19:32:02 18.6 C 3.5 g/m*3 18.6 C 0 km/h
99 16-05-2010 19:44:02 18.2 C 3.89 g/m*3 18.2 C 0 km/h
100 16-05-2010 19:56:02 18.3 C 3.91 g/m*3 18.3 C 0 km/h
Sensor: Nr:Datum:Temp:Abs-Feuchte:Windchill:Wind:
Aussen-T/F 101 16-05-2010 20:08:02 19.3 C 4.15 g/m*3 19.3 C 0 km/h
102 16-05-2010 20:20:02 19.3 C 4.48 g/m*3 19.3 C 0 km/h
103 16-05-2010 20:32:02 18.2 C 4.51 g/m*3 18.2 C 0 km/h
104 16-05-2010 20:44:02 17 C 4.63 g/m*3 17 C 0 km/h
105 16-05-2010 20:56:02 16 C 4.5 g/m*3 16 C 0 km/h
106 16-05-2010 21:08:02 15.1 C 4.52 g/m*3 15.1 C 0 km/h
107 16-05-2010 21:20:02 14.6 C 4.63 g/m*3 14.6 C 0 km/h
108 16-05-2010 21:32:02 14.2 C 4.76 g/m*3 14.2 C 0 km/h
109 16-05-2010 21:44:02 13.9 C 4.92 g/m*3 13.9 C 0 km/h
110 16-05-2010 21:56:02 13.6 C 5.18 g/m*3 13.6 C 0 km/h
111 16-05-2010 22:08:02 13.2 C 5.05 g/m*3 13.2 C 0 km/h
112 16-05-2010 22:20:03 12.6 C 5.31 g/m*3 12.6 C 0 km/h
113 16-05-2010 22:33:03 12.3 C 5.32 g/m*3 12.3 C 0 km/h
114 16-05-2010 22:45:03 11.9 C 5.4 g/m*3 11.9 C 0 km/h
115 16-05-2010 22:57:03 11.8 C 5.58 g/m*3 11.8 C 0 km/h
116 16-05-2010 23:09:03 11.4 C 5.65 g/m*3 11.4 C 0 km/h
117 16-05-2010 23:21:03 11 C 5.71 g/m*3 11 C 0 km/h
118 16-05-2010 23:33:03 10.7 C 5.8 g/m*3 10.7 C 0 km/h
119 16-05-2010 23:45:03 10.7 C 5.89 g/m*3 10.7 C 0 km/h
120 16-05-2010 23:57:03 10.5 C 6.01 g/m*3 10.5 C 0 km/h
121 17-05-2010 00:09:03 10.3 C 6.03 g/m*3 10.3 C 0 km/h
122 17-05-2010 00:21:03 10.4 C 5.98 g/m*3 10.4 C 0 km/h
123 17-05-2010 00:33:03 10 C 5.92 g/m*3 10 C 0 km/h
124 17-05-2010 00:45:03 10 C 5.92 g/m*3 10 C 0 km/h
125 17-05-2010 00:57:03 9.9 C 5.98 g/m*3 9.9 C 0 km/h
Sensor: Nr:Datum:Temp:Abs-Feuchte:Windchill:Wind:
Aussen-T/F 126 17-05-2010 01:09:03 9.8 C 5.85 g/m*3 9.8 C 0 km/h
127 17-05-2010 01:21:04 9.7 C 5.99 g/m*3 9.7 C 0 km/h
128 17-05-2010 01:33:04 9.3 C 6.02 g/m*3 9.3 C 0 km/h
129 17-05-2010 01:45:04 9 C 5.99 g/m*3 9 C 0 km/h
130 17-05-2010 01:57:04 9 C 6.08 g/m*3 9 C 0 km/h
131 17-05-2010 02:09:04 8.7 C 6.14 g/m*3 8.7 C 0 km/h
132 17-05-2010 02:21:04 8.6 C 6.1 g/m*3 8.6 C 0 km/h
133 17-05-2010 02:33:04 8.6 C 6.19 g/m*3 8.6 C 0 km/h
134 17-05-2010 02:45:04 8.5 C 6.15 g/m*3 8.5 C 0 km/h
135 17-05-2010 02:57:04 8.4 C 6.11 g/m*3 8.4 C 0 km/h
136 17-05-2010 03:09:04 8.1 C 6.07 g/m*3 8.1 C 0 km/h
137 17-05-2010 03:21:04 7.8 C 6.12 g/m*3 7.8 C 0 km/h
138 17-05-2010 03:33:04 7.6 C 6.12 g/m*3 7.6 C 0 km/h
139 17-05-2010 03:45:04 7.4 C 6.12 g/m*3 7.4 C 0 km/h
140 17-05-2010 03:57:04 7.3 C 6.16 g/m*3 7.3 C 0 km/h
141 17-05-2010 04:09:04 7.2 C 6.12 g/m*3 7.2 C 0 km/h
142 17-05-2010 04:21:04 7.1 C 6.08 g/m*3 7.1 C 0 km/h
143 17-05-2010 04:33:04 7 C 6.04 g/m*3 7 C 0 km/h
144 17-05-2010 04:45:04 6.8 C 6.12 g/m*3 6.8 C 0 km/h
145 17-05-2010 04:57:04 6.7 C 6.15 g/m*3 6.7 C 0 km/h
146 17-05-2010 05:09:04 6.5 C 6.15 g/m*3 6.5 C 0 km/h
147 17-05-2010 05:21:04 6.3 C 6.07 g/m*3 6.3 C 0 km/h
148 17-05-2010 05:33:04 6.2 C 6.1 g/m*3 6.2 C 0 km/h
149 17-05-2010 05:45:05 6.1 C 6.06 g/m*3 6.1 C 0 km/h
150 17-05-2010 05:57:05 6 C 6.02 g/m*3 6 C 0 km/h
Sensor: Nr:Datum:Temp:Abs-Feuchte:Windchill:Wind:
Aussen-T/F 151 17-05-2010 06:09:05 6 C 6.1 g/m*3 6 C 0 km/h
152 17-05-2010 06:21:05 6 C 6.02 g/m*3 6 C 0 km/h
153 17-05-2010 06:33:03 6 C 6.02 g/m*3 6 C 0 km/h
154 17-05-2010 06:45:02 5.9 C 6.06 g/m*3 5.9 C 0 km/h
155 17-05-2010 06:57:02 6.1 C 6.06 g/m*3 6.1 C 0 km/h
156 17-05-2010 07:09:01 6.3 C 6.14 g/m*3 6.3 C 0 km/h
157 17-05-2010 07:21:02 6.5 C 6.15 g/m*3 6.5 C 0 km/h
158 17-05-2010 07:33:01 7.2 C 6.2 g/m*3 7.2 C 0 km/h
159 17-05-2010 07:45:02 7.4 C 6.2 g/m*3 7.4 C 0 km/h
160 17-05-2010 07:57:02 8 C 6.2 g/m*3 8 C 0 km/h
161 17-05-2010 08:09:01 8.3 C 6.24 g/m*3 8.3 C 0 km/h
162 17-05-2010 08:21:02 8.8 C 6.35 g/m*3 8.8 C 0 km/h
163 17-05-2010 08:33:02 9.2 C 6.25 g/m*3 9.2 C 0 km/h
164 17-05-2010 08:45:02 10.1 C 6.24 g/m*3 10.1 C 0 km/h
165 17-05-2010 08:57:02 10.7 C 6.29 g/m*3 10.7 C 0 km/h
166 17-05-2010 09:09:02 11.2 C 6.28 g/m*3 11.2 C 0 km/h
167 17-05-2010 09:21:02 11.6 C 6.44 g/m*3 11.6 C 0 km/h
168 17-05-2010 09:33:02 12.2 C 6.47 g/m*3 12.2 C 0 km/h
169 17-05-2010 09:45:02 12.2 C 6.47 g/m*3 12.2 C 0 km/h
170 17-05-2010 09:57:02 12.2 C 6.47 g/m*3 12.2 C 0 km/h
171 17-05-2010 10:09:02 13 C 6.35 g/m*3 13 C 0 km/h
172 17-05-2010 10:21:02 13.2 C 6.2 g/m*3 13.2 C 0 km/h
173 17-05-2010 10:33:03 13.7 C 6.39 g/m*3 13.7 C 0 km/h
174 17-05-2010 10:45:02 14.1 C 6.55 g/m*3 14.1 C 0 km/h
175 17-05-2010 10:57:03 14.5 C 6.47 g/m*3 14.5 C 0 km/h
Sensor: Nr:Datum:Temp:Abs-Feuchte:Windchill:Wind:
Aussen-T/F 176 17-05-2010 11:09:01 14.1 C 6.55 g/m*3 14.1 C 0 km/h
177 17-05-2010 11:21:02 13.9 C 6.83 g/m*3 13.9 C 0 km/h
178 17-05-2010 11:33:02 13.5 C 6.67 g/m*3 13.5 C 0 km/h
179 17-05-2010 11:45:02 13.5 C 7.13 g/m*3 13.5 C 0 km/h
180 17-05-2010 11:57:02 13 C 7.14 g/m*3 13 C 0 km/h
181 17-05-2010 12:09:02 13.2 C 7.23 g/m*3 13.2 C 0 km/h
182 17-05-2010 12:21:02 13 C 7.48 g/m*3 13 C 0 km/h
183 17-05-2010 12:33:02 13.2 C 7.69 g/m*3 13.2 C 0 km/h
184 17-05-2010 12:45:01 14.2 C 7.45 g/m*3 14.2 C 0 km/h
185 17-05-2010 12:57:01 15.8 C 7.27 g/m*3 15.8 C 0 km/h
186 17-05-2010 13:09:02 15.4 C 6.7 g/m*3 15.4 C 0 km/h
187 17-05-2010 13:21:01 16.9 C 6.9 g/m*3 16.9 C 0 km/h
188 17-05-2010 13:33:01 18.1 C 6.49 g/m*3 18.1 C 0 km/h
189 17-05-2010 13:45:01 17.7 C 6.04 g/m*3 17.7 C 0 km/h
190 17-05-2010 13:57:01 15 C 7.05 g/m*3 15 C 0 km/h
191 17-05-2010 14:09:02 15.6 C 7.05 g/m*3 15.6 C 0 km/h
192 17-05-2010 14:21:01 15.5 C 7.4 g/m*3 15.5 C 0 km/h
193 17-05-2010 14:33:01 17.1 C 6.7 g/m*3 17.1 C 0 km/h
194 17-05-2010 14:45:01 16.5 C 6.46 g/m*3 16.5 C 0 km/h
195 17-05-2010 14:57:01 14.7 C 7.18 g/m*3 14.7 C 0 km/h
196 17-05-2010 15:09:02 12.6 C 8.3 g/m*3 12.6 C 0 km/h
197 17-05-2010 15:21:02 12.6 C 9.07 g/m*3 12.6 C 0 km/h
198 17-05-2010 15:33:01 12.9 C 9.58 g/m*3 12.9 C 0 km/h
199 17-05-2010 15:45:02 12.7 C 9.57 g/m*3 12.7 C 0 km/h
200 17-05-2010 15:57:02 12.5 C 9.57 g/m*3 12.5 C 0 km/h
Sensor: Nr:Datum:Temp:Abs-Feuchte:Windchill:Wind:
Aussen-T/F 201 17-05-2010 16:09:01 13.3 C 10.05 g/m*3 13.3 C 0 km/h
202 17-05-2010 16:21:02 13.8 C 9.89 g/m*3 13.8 C 0 km/h
203 17-05-2010 16:33:01 13.7 C 9.24 g/m*3 13.7 C 0 km/h
204 17-05-2010 16:45:02 13.1 C 8.9 g/m*3 13.1 C 0 km/h
205 17-05-2010 16:57:02 13.3 C 9.24 g/m*3 13.3 C 0 km/h
206 17-05-2010 17:09:01 13.8 C 9.29 g/m*3 13.8 C 0 km/h
207 17-05-2010 17:21:01 14.1 C 8.98 g/m*3 14.1 C 0 km/h
208 17-05-2010 17:33:01 13.9 C 8.99 g/m*3 13.9 C 0 km/h
209 17-05-2010 17:45:02 13.7 C 8.64 g/m*3 13.7 C 0 km/h
210 17-05-2010 17:57:02 13.8 C 8.7 g/m*3 13.8 C 0 km/h
211 17-05-2010 18:09:02 13.6 C 8.47 g/m*3 13.6 C 0 km/h
212 17-05-2010 18:21:02 14.4 C 8.9 g/m*3 14.4 C 0 km/h
213 17-05-2010 18:33:02 11.8 C 6.63 g/m*3 11.8 C 0 km/h
214 17-05-2010 18:45:01 10.7 C 6.88 g/m*3 10.7 C 0 km/h
215 17-05-2010 18:57:01 10 C 7.24 g/m*3 10 C 0 km/h
216 17-05-2010 19:09:02 9.8 C 7.7 g/m*3 9.8 C 0 km/h
217 17-05-2010 19:21:01 10.3 C 7.85 g/m*3 10.3 C 0 km/h
218 17-05-2010 19:33:02 10.3 C 7.95 g/m*3 10.3 C 0 km/h
219 17-05-2010 19:45:02 9.8 C 7.7 g/m*3 9.8 C 0 km/h
220 17-05-2010 19:57:02 10 C 7.8 g/m*3 10 C 0 km/h
221 17-05-2010 20:09:02 9.8 C 7.89 g/m*3 9.8 C 0 km/h
222 17-05-2010 20:21:01 9.5 C 7.83 g/m*3 9.5 C 0 km/h
223 17-05-2010 20:33:02 9.5 C 7.92 g/m*3 9.5 C 0 km/h
224 17-05-2010 20:45:02 9.4 C 7.87 g/m*3 9.4 C 0 km/h
225 17-05-2010 20:57:02 9.1 C 7.81 g/m*3 9.1 C 0 km/h
Sensor: Nr:Datum:Temp:Abs-Feuchte:Windchill:Wind:
Aussen-T/F 226 17-05-2010 21:09:02 9 C 7.76 g/m*3 9 C 0 km/h
227 17-05-2010 21:21:02 9 C 7.85 g/m*3 9 C 0 km/h
228 17-05-2010 21:33:02 9 C 7.85 g/m*3 9 C 0 km/h
229 17-05-2010 21:45:02 8.7 C 7.78 g/m*3 8.7 C 0 km/h
230 17-05-2010 21:57:02 8.7 C 7.87 g/m*3 8.7 C 0 km/h
231 17-05-2010 22:09:02 8.3 C 7.67 g/m*3 8.3 C 0 km/h
232 17-05-2010 22:21:02 8.6 C 7.82 g/m*3 8.6 C 0 km/h
233 17-05-2010 22:34:03 8.7 C 7.96 g/m*3 8.7 C 0 km/h
234 17-05-2010 22:46:03 8.5 C 7.85 g/m*3 8.5 C 0 km/h
235 17-05-2010 22:58:03 8.4 C 7.8 g/m*3 8.4 C 0 km/h
236 17-05-2010 23:10:04 8.1 C 7.57 g/m*3 8.1 C 0 km/h
237 17-05-2010 23:22:04 7.8 C 7.51 g/m*3 7.8 C 0 km/h
238 17-05-2010 23:34:04 7.8 C 7.51 g/m*3 7.8 C 0 km/h
239 17-05-2010 23:46:04 7.7 C 7.54 g/m*3 7.7 C 0 km/h
240 17-05-2010 23:58:04 7.6 C 7.49 g/m*3 7.6 C 0 km/h
241 18-05-2010 00:10:04 7.4 C 7.32 g/m*3 7.4 C 0 km/h
242 18-05-2010 00:22:04 7.1 C 7.18 g/m*3 7.1 C 0 km/h
243 18-05-2010 00:34:04 7 C 7.13 g/m*3 7 C 0 km/h
244 18-05-2010 00:46:04 7 C 7.13 g/m*3 7 C 0 km/h
245 18-05-2010 00:58:04 6.9 C 7.16 g/m*3 6.9 C 0 km/h
246 18-05-2010 01:10:04 6.8 C 7.11 g/m*3 6.8 C 0 km/h
247 18-05-2010 01:22:04 6.6 C 7.02 g/m*3 6.6 C 0 km/h
248 18-05-2010 01:34:04 6.4 C 6.85 g/m*3 6.4 C 0 km/h
249 18-05-2010 01:46:04 6.3 C 6.88 g/m*3 6.3 C 0 km/h
250 18-05-2010 01:58:04 6.2 C 6.84 g/m*3 6.2 C 0 km/h
Sensor: Nr:Datum:Temp:Abs-Feuchte:Windchill:Wind:
Aussen-T/F 251 18-05-2010 02:10:04 6.3 C 6.88 g/m*3 6.3 C 0 km/h
252 18-05-2010 02:22:04 6.2 C 6.84 g/m*3 6.2 C 0 km/h
253 18-05-2010 02:34:04 6.1 C 6.79 g/m*3 6.1 C 0 km/h
254 18-05-2010 02:46:04 6 C 6.75 g/m*3 6 C 0 km/h
255 18-05-2010 02:58:04 5.9 C 6.71 g/m*3 5.9 C 0 km/h
256 18-05-2010 03:10:04 5.8 C 6.66 g/m*3 5.8 C 0 km/h
257 18-05-2010 03:22:04 5.7 C 6.62 g/m*3 5.7 C 0 km/h
258 18-05-2010 03:34:05 5.7 C 6.69 g/m*3 5.7 C 0 km/h
259 18-05-2010 03:46:05 5.8 C 6.73 g/m*3 5.8 C 0 km/h
260 18-05-2010 03:58:05 6 C 6.75 g/m*3 6 C 0 km/h
261 18-05-2010 04:10:05 6.3 C 6.96 g/m*3 6.3 C 0 km/h
262 18-05-2010 04:22:05 6.3 C 6.96 g/m*3 6.3 C 0 km/h
263 18-05-2010 04:34:05 6.3 C 6.96 g/m*3 6.3 C 0 km/h
264 18-05-2010 04:46:05 6.2 C 6.91 g/m*3 6.2 C 0 km/h
265 18-05-2010 04:58:05 6.3 C 6.88 g/m*3 6.3 C 0 km/h
266 18-05-2010 05:10:05 6.4 C 7 g/m*3 6.4 C 0 km/h
267 18-05-2010 05:22:05 6.5 C 7.05 g/m*3 6.5 C 0 km/h
268 18-05-2010 05:34:05 6.4 C 6.93 g/m*3 6.4 C 0 km/h
269 18-05-2010 05:46:05 6.5 C 6.97 g/m*3 6.5 C 0 km/h
270 18-05-2010 05:58:05 6.7 C 7.07 g/m*3 6.7 C 0 km/h
271 18-05-2010 06:10:05 6.9 C 7.16 g/m*3 6.9 C 0 km/h
272 18-05-2010 06:22:05 6.9 C 7.16 g/m*3 6.9 C 0 km/h
273 18-05-2010 06:34:05 7.1 C 7.18 g/m*3 7.1 C 0 km/h
274 18-05-2010 06:46:05 7.3 C 7.27 g/m*3 7.3 C 0 km/h
275 18-05-2010 06:58:05 7.5 C 7.28 g/m*3 7.5 C 0 km/h
Sensor: Nr:Datum:Temp:Abs-Feuchte:Windchill:Wind:
Aussen-T/F 276 18-05-2010 07:10:04 7.9 C 7.47 g/m*3 7.9 C 0 km/h
277 18-05-2010 07:22:03 7.9 C 7.39 g/m*3 7.9 C 0 km/h
278 18-05-2010 07:34:03 8 C 7.36 g/m*3 8 C 0 km/h
279 18-05-2010 07:46:01 8.5 C 7.6 g/m*3 8.5 C 0 km/h
280 18-05-2010 07:58:01 8.7 C 7.52 g/m*3 8.7 C 0 km/h
281 18-05-2010 08:10:02 9 C 7.23 g/m*3 9 C 0 km/h
282 18-05-2010 08:22:01 8.7 C 6.66 g/m*3 8.7 C 0 km/h
283 18-05-2010 08:34:02 9 C 6.44 g/m*3 9 C 0 km/h
284 18-05-2010 08:46:02 9.3 C 6.56 g/m*3 9.3 C 0 km/h
285 18-05-2010 08:58:02 9.2 C 6.52 g/m*3 9.2 C 0 km/h
286 18-05-2010 09:10:01 9.3 C 6.47 g/m*3 9.3 C 0 km/h
287 18-05-2010 09:22:02 9.6 C 6.41 g/m*3 9.6 C 0 km/h
288 18-05-2010 09:34:01 9.9 C 6.35 g/m*3 9.9 C 0 km/h
289 18-05-2010 09:46:02 9.7 C 6.08 g/m*3 9.7 C 0 km/h
290 18-05-2010 09:58:02 10 C 6.01 g/m*3 10 C 0 km/h
291 18-05-2010 10:10:01 10.5 C 6.01 g/m*3 10.5 C 0 km/h
292 18-05-2010 10:22:01 10.5 C 6.01 g/m*3 10.5 C 0 km/h
293 18-05-2010 10:34:02 10.6 C 5.66 g/m*3 10.6 C 0 km/h
294 18-05-2010 10:46:02 11.2 C 5.57 g/m*3 11.2 C 0 km/h
295 18-05-2010 10:58:02 11.4 C 5.65 g/m*3 11.4 C 0 km/h
296 18-05-2010 11:10:02 12.5 C 5.61 g/m*3 12.5 C 0 km/h
297 18-05-2010 11:22:02 12.4 C 5.24 g/m*3 12.4 C 0 km/h
298 18-05-2010 11:34:02 12.1 C 5.25 g/m*3 12.1 C 0 km/h
299 18-05-2010 11:46:02 13 C 5.22 g/m*3 13 C 0 km/h
300 18-05-2010 11:58:02 13.7 C 5.21 g/m*3 13.7 C 0 km/h
Sensor: Nr:Datum:Temp:Abs-Feuchte:Windchill:Wind:
Aussen-T/F 301 18-05-2010 12:10:03 13.7 C 4.86 g/m*3 13.7 C 0 km/h
302 18-05-2010 12:22:02 12.7 C 5.12 g/m*3 12.7 C 0 km/h
303 18-05-2010 12:34:02 14.2 C 5.13 g/m*3 14.2 C 0 km/h
304 18-05-2010 12:46:01 14.4 C 4.82 g/m*3 14.4 C 0 km/h
305 18-05-2010 12:58:01 15.2 C 4.67 g/m*3 15.2 C 0 km/h
306 18-05-2010 13:10:02 16.8 C 5 g/m*3 16.8 C 0 km/h
307 18-05-2010 13:22:01 16.9 C 4.46 g/m*3 16.9 C 0 km/h
308 18-05-2010 13:34:01 16.5 C 4.49 g/m*3 16.5 C 0 km/h
309 18-05-2010 13:46:01 17.8 C 4.4 g/m*3 17.8 C 0 km/h
310 18-05-2010 13:58:01 15.8 C 4.04 g/m*3 15.8 C 0 km/h
311 18-05-2010 14:10:02 15.1 C 4.13 g/m*3 15.1 C 0 km/h
312 18-05-2010 14:22:01 15.8 C 4.17 g/m*3 15.8 C 0 km/h
313 18-05-2010 14:34:01 15 C 4.23 g/m*3 15 C 0 km/h
314 18-05-2010 14:46:01 15.8 C 4.31 g/m*3 15.8 C 0 km/h
315 18-05-2010 14:58:01 16.3 C 4.16 g/m*3 16.3 C 0 km/h
316 18-05-2010 15:10:02 16.4 C 4.47 g/m*3 16.4 C 0 km/h
317 18-05-2010 15:22:02 16.5 C 4.21 g/m*3 16.5 C 0 km/h
318 18-05-2010 15:34:01 16.6 C 3.96 g/m*3 16.6 C 0 km/h
319 18-05-2010 15:46:02 16 C 3.95 g/m*3 16 C 0 km/h
320 18-05-2010 15:58:02 16.9 C 4.17 g/m*3 16.9 C 0 km/h
321 18-05-2010 16:10:01 18.2 C 4.04 g/m*3 18.2 C 0 km/h
322 18-05-2010 16:22:02 18.2 C 3.89 g/m*3 18.2 C 0 km/h
323 18-05-2010 16:34:01 17.9 C 3.05 g/m*3 17.9 C 0 km/h
324 18-05-2010 16:46:02 17.6 C 3.3 g/m*3 17.6 C 0 km/h
325 18-05-2010 16:58:02 16.8 C 3.29 g/m*3 16.8 C 0 km/h
Sensor: Nr:Datum:Temp:Abs-Feuchte:Windchill:Wind:
Aussen-T/F 326 18-05-2010 17:10:02 16.6 C 3.53 g/m*3 16.6 C 0 km/h
327 18-05-2010 17:22:02 17.7 C 3.77 g/m*3 17.7 C 0 km/h
328 18-05-2010 17:34:02 17.5 C 4.03 g/m*3 17.5 C 0 km/h
329 18-05-2010 17:46:02 16.8 C 3.86 g/m*3 16.8 C 0 km/h
330 18-05-2010 17:58:02 17.2 C 3.66 g/m*3 17.2 C 0 km/h
331 18-05-2010 18:10:01 18.2 C 3.57 g/m*3 18.2 C 0 km/h
332 18-05-2010 18:22:02 18.2 C 3.73 g/m*3 18.2 C 0 km/h
333 18-05-2010 18:34:02 16.9 C 3.88 g/m*3 16.9 C 0 km/h
334 18-05-2010 18:46:02 16.2 C 4.14 g/m*3 16.2 C 0 km/h
335 18-05-2010 18:58:02 16.4 C 4.33 g/m*3 16.4 C 0 km/h
336 18-05-2010 19:10:02 15.7 C 4.42 g/m*3 15.7 C 0 km/h
337 18-05-2010 19:22:02 16.1 C 4.25 g/m*3 16.1 C 0 km/h
338 18-05-2010 19:34:03 15.3 C 4.31 g/m*3 15.3 C 0 km/h
339 18-05-2010 19:46:02 14.8 C 4.56 g/m*3 14.8 C 0 km/h
340 18-05-2010 19:58:02 14.7 C 4.66 g/m*3 14.7 C 0 km/h
341 18-05-2010 20:10:02 14.5 C 4.6 g/m*3 14.5 C 0 km/h
342 18-05-2010 20:22:01 14.4 C 4.94 g/m*3 14.4 C 0 km/h
343 18-05-2010 20:34:02 14.5 C 4.85 g/m*3 14.5 C 0 km/h
344 18-05-2010 20:46:02 14.1 C 4.85 g/m*3 14.1 C 0 km/h
345 18-05-2010 20:58:02 13.8 C 4.89 g/m*3 13.8 C 0 km/h
346 18-05-2010 21:10:02 13.5 C 5.03 g/m*3 13.5 C 0 km/h
347 18-05-2010 21:22:02 13.1 C 4.79 g/m*3 13.1 C 0 km/h
348 18-05-2010 21:34:02 12.6 C 4.76 g/m*3 12.6 C 0 km/h
349 18-05-2010 21:46:02 12.4 C 4.48 g/m*3 12.4 C 0 km/h
350 18-05-2010 21:58:02 12.4 C 4.37 g/m*3 12.4 C 0 km/h
Sensor: Nr:Datum:Temp:Abs-Feuchte:Windchill:Wind:
Aussen-T/F 351 18-05-2010 22:10:02 12 C 4.37 g/m*3 12 C 0 km/h
352 18-05-2010 22:22:02 11.7 C 4.39 g/m*3 11.7 C 0 km/h
353 18-05-2010 22:35:02 11.5 C 4.44 g/m*3 11.5 C 0 km/h
354 18-05-2010 22:47:02 11.2 C 4.66 g/m*3 11.2 C 0 km/h
355 18-05-2010 22:59:02 10.8 C 4.94 g/m*3 10.8 C 0 km/h
356 18-05-2010 23:11:02 10.5 C 5.04 g/m*3 10.5 C 0 km/h
357 18-05-2010 23:23:02 10.2 C 5.33 g/m*3 10.2 C 0 km/h
358 18-05-2010 23:35:03 9.9 C 5.51 g/m*3 9.9 C 0 km/h
359 18-05-2010 23:47:03 9.7 C 5.53 g/m*3 9.7 C 0 km/h
360 18-05-2010 23:59:03 9.6 C 5.59 g/m*3 9.6 C 0 km/h

Legende:
   Min
   Max


Maximal/Minimal-Werte vom 16.05.2010 - 18.05.2010

Sensor Min Max Avg
Temp
(Aussen-T/F)
5.7 °C
18-05-2010  03:22:04
21.7 °C
16-05-2010  17:08:02
11.78 °C
Abs-Feuchte
(Aussen-T/F)
3.05 g/m*3
18-05-2010  16:34:01
10.05 g/m*3
17-05-2010  16:09:01
5.78 g/m*3
Windchill
(Aussen-T/F)
5.7 C
18-05-2010  03:22:04
21.7 C
16-05-2010  17:08:02
11.75 C

Die Daten stammen von einer Davis Vantage Pro 2 Wetter-Station und werden unter Linux mit der Software wview2wettercgi und aufbereitet. Alle Angaben erfolgen ohne Gewähr für ihre Vollständigkeit oder Richtigkeit.
Kontakt: Rainer Krienke krienke@uni-koblenz.de . Meine Webseiten an der Uni Koblenz oder privat.
Version: $Revision: 0.78 $